BAW9026 LOWW-LHBP

Flight info

Callsign BAW9026
Flight time 0h 25m
Altitude 19000
Route ADAMA2B ADAMA Z647 ANEXA ANEXA2T
Aircraft A21N/M-SDE3FGIJ1LRWXYZ/SB1G1

Departure

Time 2026-05-05 14:14
Airport Vienna International Airport (LOWW)

Arrival

Time 2026-05-05 14:40
Airport Budapest Liszt Ferenc International Airport (LHBP)
Time Latitude Longitude Altitude Speed Heading
2026-05-05 13:42 48.11852 16.55999 628 ft 0 kts 124°
2026-05-05 14:02 48.11853 16.55997 616 ft 2 kts 124°
2026-05-05 14:02 48.11868 16.55965 631 ft 4 kts 126°
2026-05-05 14:02 48.11885 16.55933 629 ft 4 kts 136°
2026-05-05 14:03 48.11905 16.55914 624 ft 4 kts 177°
2026-05-05 14:03 48.11915 16.55915 628 ft 0 kts 206°
2026-05-05 14:06 48.11914 16.55915 627 ft 1 kts 206°
2026-05-05 14:06 48.11898 16.55903 627 ft 4 kts 206°
2026-05-05 14:07 48.11866 16.55880 620 ft 6 kts 205°
2026-05-05 14:07 48.11816 16.55845 626 ft 9 kts 205°
2026-05-05 14:07 48.11757 16.55882 616 ft 12 kts 125°
2026-05-05 14:07 48.11718 16.55996 620 ft 13 kts 116°
2026-05-05 14:08 48.11675 16.56128 619 ft 9 kts 116°
2026-05-05 14:08 48.11644 16.56222 627 ft 11 kts 116°
2026-05-05 14:08 48.11606 16.56340 616 ft 14 kts 116°
2026-05-05 14:08 48.11560 16.56481 616 ft 16 kts 116°
2026-05-05 14:09 48.11507 16.56642 619 ft 18 kts 116°
2026-05-05 14:09 48.11449 16.56823 621 ft 20 kts 116°
2026-05-05 14:09 48.11384 16.57023 627 ft 22 kts 116°
2026-05-05 14:09 48.11312 16.57238 623 ft 24 kts 116°
2026-05-05 14:10 48.11250 16.57428 618 ft 13 kts 115°
2026-05-05 14:10 48.11225 16.57508 626 ft 9 kts 115°
2026-05-05 14:10 48.11206 16.57599 616 ft 10 kts 68°
2026-05-05 14:10 48.11233 16.57659 621 ft 11 kts 40°
2026-05-05 14:11 48.11327 16.57674 617 ft 11 kts 345°
2026-05-05 14:11 48.11406 16.57641 624 ft 13 kts 344°
2026-05-05 14:11 48.11468 16.57614 625 ft 15 kts 344°
2026-05-05 14:11 48.11573 16.57569 629 ft 17 kts 343°
2026-05-05 14:12 48.11694 16.57521 624 ft 19 kts 345°
2026-05-05 14:12 48.11786 16.57482 621 ft 10 kts 350°
2026-05-05 14:12 48.11837 16.57555 618 ft 13 kts 75°
2026-05-05 14:12 48.11858 16.57686 616 ft 10 kts 82°
2026-05-05 14:13 48.11849 16.57804 616 ft 10 kts 109°
2026-05-05 14:13 48.11829 16.57871 620 ft 8 kts 130°
2026-05-05 14:13 48.11791 16.57897 616 ft 0 kts 163°
2026-05-05 14:13 48.11788 16.57898 621 ft 5 kts 163°
2026-05-05 14:14 48.11509 16.58016 624 ft 79 kts 164°
2026-05-05 14:14 48.10770 16.58328 622 ft 137 kts 165°
2026-05-05 14:14 48.09768 16.58736 1057 ft 148 kts 166°
2026-05-05 14:14 48.08757 16.59172 1752 ft 153 kts 166°
2026-05-05 14:15 48.07318 16.59794 2561 ft 173 kts 167°
2026-05-05 14:15 48.06522 16.60155 3042 ft 183 kts 167°
2026-05-05 14:15 48.05315 16.61008 3806 ft 203 kts 146°
2026-05-05 14:15 48.04366 16.62640 4802 ft 215 kts 129°
2026-05-05 14:16 48.03812 16.64784 5775 ft 231 kts 108°
2026-05-05 14:16 48.03757 16.67216 6695 ft 241 kts 94°
2026-05-05 14:16 48.03860 16.69884 7189 ft 273 kts 92°
2026-05-05 14:16 48.03931 16.72868 7828 ft 291 kts 93°
2026-05-05 14:17 48.03994 16.75890 8754 ft 298 kts 92°
2026-05-05 14:17 48.04031 16.79001 9781 ft 300 kts 97°
2026-05-05 14:17 48.03797 16.82167 10422 ft 317 kts 102°
2026-05-05 14:17 48.03455 16.85545 10928 ft 338 kts 102°
2026-05-05 14:18 48.03097 16.89112 11499 ft 355 kts 102°
2026-05-05 14:18 48.02738 16.92799 12313 ft 362 kts 101°
2026-05-05 14:18 48.02380 16.96556 13220 ft 367 kts 101°
2026-05-05 14:18 48.02019 17.00357 14085 ft 371 kts 101°
2026-05-05 14:19 48.01649 17.04190 14872 ft 376 kts 101°
2026-05-05 14:19 48.01271 17.08077 15651 ft 380 kts 101°
2026-05-05 14:19 48.00890 17.12016 16405 ft 386 kts 101°
2026-05-05 14:19 48.00505 17.16028 17147 ft 392 kts 101°
2026-05-05 14:20 48.00122 17.20078 17880 ft 397 kts 100°
2026-05-05 14:20 47.99726 17.24192 18466 ft 404 kts 100°
2026-05-05 14:20 47.99320 17.28343 18751 ft 406 kts 100°
2026-05-05 14:20 47.98926 17.32401 18818 ft 390 kts 100°
2026-05-05 14:21 47.98532 17.36382 18826 ft 386 kts 101°
2026-05-05 14:21 47.98094 17.40333 18827 ft 386 kts 102°
2026-05-05 14:21 47.97642 17.44273 18830 ft 385 kts 102°
2026-05-05 14:21 47.97189 17.48213 18831 ft 385 kts 102°
2026-05-05 14:22 47.96747 17.52151 18832 ft 385 kts 102°
2026-05-05 14:22 47.96305 17.56087 18839 ft 385 kts 102°
2026-05-05 14:22 47.95857 17.60031 18845 ft 385 kts 102°
2026-05-05 14:22 47.95407 17.63969 18851 ft 385 kts 102°
2026-05-05 14:23 47.94958 17.67917 18859 ft 385 kts 102°
2026-05-05 14:23 47.94507 17.71848 18864 ft 385 kts 102°
2026-05-05 14:23 47.94053 17.75782 18864 ft 385 kts 102°
2026-05-05 14:23 47.93601 17.79707 18859 ft 382 kts 102°
2026-05-05 14:24 47.93152 17.83577 18474 ft 375 kts 102°
2026-05-05 14:24 47.92712 17.87405 17877 ft 375 kts 102°
2026-05-05 14:24 47.92278 17.91182 17308 ft 372 kts 103°
2026-05-05 14:24 47.91840 17.94974 16782 ft 369 kts 103°
2026-05-05 14:25 47.91395 17.98765 16273 ft 365 kts 103°
2026-05-05 14:25 47.90963 18.02419 15784 ft 361 kts 103°
2026-05-05 14:25 47.90523 18.06131 15296 ft 357 kts 103°
2026-05-05 14:25 47.90098 18.09754 14838 ft 353 kts 103°
2026-05-05 14:26 47.89681 18.13295 14384 ft 350 kts 104°
2026-05-05 14:26 47.89219 18.16879 13902 ft 344 kts 110°
2026-05-05 14:26 47.88227 18.20001 13375 ft 334 kts 128°
2026-05-05 14:26 47.86805 18.22696 12910 ft 328 kts 134°
2026-05-05 14:27 47.85344 18.25216 12628 ft 316 kts 135°
2026-05-05 14:27 47.83923 18.27636 12371 ft 303 kts 135°
2026-05-05 14:27 47.82564 18.29956 12092 ft 293 kts 135°
2026-05-05 14:27 47.81241 18.32225 11651 ft 289 kts 135°
2026-05-05 14:28 47.80117 18.34728 11214 ft 293 kts 122°
2026-05-05 14:28 47.79243 18.37467 10759 ft 292 kts 120°
2026-05-05 14:28 47.78398 18.40216 10302 ft 291 kts 119°
2026-05-05 14:28 47.77568 18.42913 10018 ft 283 kts 120°
2026-05-05 14:29 47.76750 18.45542 9658 ft 278 kts 120°
2026-05-05 14:29 47.75937 18.48133 9201 ft 276 kts 120°
2026-05-05 14:29 47.75121 18.50729 8689 ft 277 kts 120°
2026-05-05 14:29 47.74300 18.53321 8270 ft 275 kts 120°
2026-05-05 14:30 47.73502 18.55832 7880 ft 271 kts 120°
2026-05-05 14:30 47.72702 18.58358 7488 ft 268 kts 120°
2026-05-05 14:30 47.71908 18.60853 7073 ft 266 kts 120°
2026-05-05 14:30 47.71118 18.63337 6657 ft 265 kts 120°
2026-05-05 14:31 47.70331 18.65802 6313 ft 263 kts 120°
2026-05-05 14:31 47.69554 18.68249 5943 ft 260 kts 120°
2026-05-05 14:31 47.68782 18.70677 5522 ft 260 kts 120°
2026-05-05 14:31 47.68017 18.73077 5266 ft 259 kts 120°
2026-05-05 14:32 47.67260 18.75453 5098 ft 251 kts 120°
2026-05-05 14:32 47.66520 18.77766 4855 ft 246 kts 121°
2026-05-05 14:32 47.65787 18.80057 4691 ft 244 kts 120°
2026-05-05 14:32 47.65068 18.82294 4552 ft 237 kts 120°
2026-05-05 14:33 47.64367 18.84490 4419 ft 235 kts 120°
2026-05-05 14:33 47.63667 18.86673 4307 ft 234 kts 120°
2026-05-05 14:33 47.62968 18.88844 4161 ft 233 kts 120°
2026-05-05 14:33 47.62262 18.91032 4019 ft 235 kts 120°
2026-05-05 14:34 47.61567 18.93219 3928 ft 233 kts 119°
2026-05-05 14:34 47.60900 18.95348 3825 ft 225 kts 122°
2026-05-05 14:34 47.60131 18.97329 3721 ft 220 kts 128°
2026-05-05 14:34 47.59246 18.99163 3603 ft 218 kts 131°
2026-05-05 14:35 47.58356 19.00947 3458 ft 211 kts 132°
2026-05-05 14:35 47.57459 19.02599 3393 ft 200 kts 136°
2026-05-05 14:35 47.56507 19.04032 3289 ft 192 kts 143°
2026-05-05 14:35 47.55496 19.05325 3218 ft 192 kts 144°
2026-05-05 14:36 47.54486 19.06617 3042 ft 192 kts 144°
2026-05-05 14:36 47.53508 19.07961 2893 ft 193 kts 139°
2026-05-05 14:36 47.52589 19.09405 2696 ft 193 kts 137°
2026-05-05 14:36 47.51729 19.10867 2548 ft 179 kts 135°
2026-05-05 14:37 47.50966 19.12242 2405 ft 170 kts 135°
2026-05-05 14:37 47.50207 19.13546 2193 ft 165 kts 138°
2026-05-05 14:37 47.49422 19.14768 1924 ft 164 kts 141°
2026-05-05 14:37 47.48619 19.15950 1703 ft 161 kts 142°
2026-05-05 14:38 47.47894 19.17097 1484 ft 140 kts 137°
2026-05-05 14:38 47.47274 19.18142 1235 ft 133 kts 137°
2026-05-05 14:38 47.46674 19.19168 1050 ft 130 kts 138°
2026-05-05 14:38 47.46062 19.20153 851 ft 131 kts 137°
2026-05-05 14:39 47.45451 19.21142 676 ft 129 kts 139°
2026-05-05 14:39 47.44847 19.22125 488 ft 130 kts 139°
2026-05-05 14:39 47.44289 19.23018 458 ft 96 kts 131°
2026-05-05 14:39 47.43977 19.23521 460 ft 50 kts 132°
2026-05-05 14:40 47.43804 19.23809 460 ft 32 kts 130°
2026-05-05 14:40 47.43714 19.24024 457 ft 25 kts 109°
2026-05-05 14:40 47.43681 19.24198 461 ft 18 kts 103°
2026-05-05 14:40 47.43650 19.24378 462 ft 17 kts 110°
2026-05-05 14:41 47.43603 19.24519 462 ft 15 kts 119°
2026-05-05 14:41 47.43532 19.24646 462 ft 17 kts 133°
2026-05-05 14:41 47.43478 19.24733 462 ft 11 kts 132°
2026-05-05 14:41 47.43420 19.24826 462 ft 14 kts 132°
2026-05-05 14:42 47.43350 19.24939 463 ft 16 kts 132°
2026-05-05 14:42 47.43285 19.25045 463 ft 11 kts 132°
2026-05-05 14:42 47.43237 19.25129 463 ft 7 kts 116°
2026-05-05 14:42 47.43232 19.25217 463 ft 10 kts 78°
2026-05-05 14:43 47.43282 19.25305 463 ft 13 kts 41°
2026-05-05 14:43 47.43339 19.25393 463 ft 11 kts 73°
2026-05-05 14:43 47.43303 19.25497 463 ft 13 kts 131°
2026-05-05 14:43 47.43235 19.25606 463 ft 16 kts 133°
2026-05-05 14:44 47.43156 19.25734 463 ft 18 kts 132°
2026-05-05 14:44 47.43068 19.25878 463 ft 16 kts 132°
2026-05-05 14:44 47.43057 19.25895 463 ft 3 kts 132°
2026-05-05 14:44 47.43042 19.25928 463 ft 5 kts 97°
2026-05-05 14:45 47.43070 19.25979 462 ft 6 kts 42°
2026-05-05 14:45 47.43085 19.26000 463 ft 2 kts 42°
2026-05-05 14:45 47.43091 19.26008 463 ft 0 kts 42°